TimeEST,TemperatureF,Dew PointF,Humidity,Sea Level PressureIn,VisibilityMPH,Wind Direction,Wind SpeedMPH,Gust SpeedMPH,PrecipitationIn,Events,Conditions,WindDirDegrees,DateUTC
12:54 AM,39.9,36.0,86,29.74,10.0,West,10.4,-,N/A,,Overcast,270,2012-12-17 05:54:00
1:54 AM,39.9,36.0,86,29.73,10.0,West,6.9,-,N/A,,Overcast,270,2012-12-17 06:54:00
2:54 AM,39.9,36.0,86,29.75,10.0,West,6.9,-,N/A,,Overcast,260,2012-12-17 07:54:00
3:39 AM,39.2,35.6,87,29.74,10.0,West,6.9,-,N/A,,Overcast,260,2012-12-17 08:39:00
3:54 AM,39.0,36.0,89,29.75,10.0,WSW,5.8,-,N/A,,Overcast,250,2012-12-17 08:54:00
4:54 AM,39.0,36.0,89,29.75,8.0,West,5.8,-,N/A,,Overcast,270,2012-12-17 09:54:00
5:54 AM,39.0,36.0,89,29.75,7.0,WSW,4.6,-,N/A,,Overcast,250,2012-12-17 10:54:00
6:17 AM,39.2,35.6,87,29.74,7.0,SW,4.6,-,N/A,,Overcast,230,2012-12-17 11:17:00
6:54 AM,39.0,36.0,89,29.76,6.0,NW,3.5,-,N/A,,Overcast,320,2012-12-17 11:54:00
7:54 AM,39.0,36.0,89,29.76,5.0,Calm,Calm,-,0.00,,Overcast,0,2012-12-17 12:54:00
8:54 AM,37.9,35.1,89,29.75,5.0,NNE,3.5,-,N/A,,Overcast,20,2012-12-17 13:54:00
9:54 AM,39.0,36.0,89,29.74,6.0,NE,3.5,-,N/A,,Overcast,40,2012-12-17 14:54:00
10:54 AM,39.9,36.0,86,29.73,6.0,NE,3.5,-,N/A,,Overcast,40,2012-12-17 15:54:00
11:44 AM,39.2,35.6,87,29.69,7.0,ENE,4.6,-,N/A,,Overcast,70,2012-12-17 16:44:00
11:54 AM,39.9,36.0,86,29.71,7.0,ENE,4.6,-,N/A,,Overcast,60,2012-12-17 16:54:00
12:54 PM,41.0,36.0,82,29.70,8.0,Calm,Calm,-,N/A,,Overcast,0,2012-12-17 17:54:00
1:54 PM,41.0,36.0,82,29.66,9.0,NE,4.6,-,N/A,,Overcast,40,2012-12-17 18:54:00
2:54 PM,41.0,36.0,82,29.65,9.0,North,4.6,-,N/A,,Overcast,350,2012-12-17 19:54:00
3:21 PM,41.0,35.6,81,29.62,9.0,NNE,5.8,-,N/A,,Overcast,30,2012-12-17 20:21:00
3:54 PM,42.1,36.0,79,29.64,9.0,North,3.5,-,N/A,,Overcast,350,2012-12-17 20:54:00
4:54 PM,41.0,36.0,82,29.64,7.0,North,5.8,-,N/A,,Overcast,10,2012-12-17 21:54:00
7:54 PM,39.9,36.0,86,29.64,7.0,North,4.6,-,0.00,Rain,Light Rain,10,2012-12-18 00:54:00
8:54 PM,39.0,37.0,93,29.65,6.0,NNW,4.6,-,0.00,Rain,Light Rain,330,2012-12-18 01:54:00
9:54 PM,37.9,37.0,97,29.67,5.0,NW,3.5,-,0.01,Rain,Light Rain,310,2012-12-18 02:54:00
10:29 PM,37.4,37.4,100,29.65,6.0,NW,4.6,-,0.00,Rain,Light Rain,320,2012-12-18 03:29:00
10:54 PM,37.9,36.0,93,29.68,6.0,NNW,4.6,-,0.01,Rain,Light Rain,340,2012-12-18 03:54:00
11:06 PM,37.4,35.6,93,29.66,5.0,NNW,5.8,-,0.01,Rain,Light Rain,340,2012-12-18 04:06:00
11:41 PM,37.4,35.6,93,29.67,6.0,NNW,6.9,-,0.01,Rain,Light Rain,340,2012-12-18 04:41:00
11:54 PM,37.0,36.0,96,29.68,6.0,NNW,5.8,-,0.02,Rain,Light Rain,340,2012-12-18 04:54:00